CW8917 Weather Reports


time (UTC)temp
C
wind
direction
speed
KPH
gust
KPH
rain 1hr
cm
rain 24hr
cm
rain mn
cm
humidity
%
barometer
mb
20260502105630 5 205 0.0 6.4 0.00 0.00 0.00 68 1019.3
20260502104619 6 232 6.4 8.0 0.00 0.00 0.00 66 1019.2
20260502103626 5 84 1.6 6.4 0.00 0.00 0.00 69 1019.3
20260502102616 5 198 0.0 3.2 0.00 0.00 0.00 70 1019.3
20260502101628 5 198 1.6 3.2 0.00 0.00 0.00 70 1019.3
20260502100618 5 201 0.0 4.8 0.00 0.00 0.00 69 1019.2
20260502090626 6 204 1.6 4.8 0.00 0.00 0.00 65 1019.1
20260502070642 8 49 3.2 8.0 0.00 0.00 0.00 60 1019.0
20260502065626 10 321 3.2 12.9 0.00 0.00 0.00 55 1019.0
20260502064618 10 63 1.6 9.7 0.00 0.00 0.00 50 1018.9
20260502063626 9 50 3.2 6.4 0.00 0.00 0.00 60 1018.8
20260502062616 9 55 4.8 6.4 0.00 0.00 0.00 60 1018.8
20260502061627 10 275 3.2 8.0 0.00 0.00 0.00 51 1018.7
20260502060628 10 76 3.2 8.0 0.00 0.00 0.00 46 1018.5
20260502055628 9 248 0.0 0.0 0.00 0.00 0.00 55 1018.5
20260502054615 9 248 0.0 4.8 0.00 0.00 0.00 55 1018.5
20260502053645 10 248 3.2 6.4 0.00 0.00 0.00 54 1018.3
20260502052619 10 152 3.2 4.8 0.00 0.00 0.00 51 1018.2
20260502051629 10 153 1.6 8.0 0.00 0.00 0.00 51 1018.2
20260502050620 11 167 1.6 4.8 0.00 0.00 0.00 51 1018.2
20260502045618 11 166 4.8 4.8 0.00 0.00 0.00 50 1018.2
20260502044629 12 166 1.6 8.0 0.00 0.00 0.00 47 1018.2
20260502043638 12 168 3.2 4.8 0.00 0.00 0.00 46 1018.2
20260502042625 12 168 3.2 8.0 0.00 0.00 0.00 47 1018.2
20260502041632 12 165 3.2 6.4 0.00 0.00 0.00 47 1018.2
20260502040624 12 165 3.2 4.8 0.00 0.00 0.00 48 1018.0
20260502035626 12 165 3.2 8.0 0.00 0.00 0.00 45 1017.9
20260502034614 14 155 3.2 8.0 0.00 0.00 0.00 39 1017.7
20260502033624 13 222 0.0 4.8 0.00 0.00 0.00 40 1017.6
20260502032619 13 227 0.0 6.4 0.00 0.00 0.00 42 1017.6
20260502031630 14 243 1.6 3.2 0.00 0.00 0.00 41 1017.4
20260502030641 14 248 1.6 3.2 0.00 0.00 0.00 41 1017.2
20260502025620 15 255 1.6 3.2 0.00 0.00 0.00 45 1017.0
20260502024613 16 255 1.6 3.2 0.00 0.00 0.00 42 1016.9
20260502023622 17 256 3.2 6.4 0.00 0.00 0.00 33 1016.9
20260502022630 18 333 0.0 1.6 0.00 0.00 0.00 24 1016.7
20260502021637 18 333 1.6 3.2 0.00 0.00 0.00 24 1016.7
20260502020627 19 333 1.6 3.2 0.00 0.00 0.00 24 1016.7
20260502015626 19 332 0.0 4.8 0.00 0.00 0.00 26 1016.6
20260502014613 19 331 1.6 4.8 0.00 0.00 0.00 25 1016.7
20260502013621 20 330 3.2 6.4 0.00 0.00 0.00 25 1016.6
20260502012632 20 276 3.2 8.0 0.00 0.00 0.00 24 1016.6
20260502011620 20 333 1.6 8.0 0.00 0.00 0.00 23 1016.6
20260502010649 20 36 3.2 6.4 0.00 0.00 0.00 23 1016.6
20260502005626 20 296 4.8 8.0 0.00 0.00 0.00 24 1016.7
20260502004617 20 347 3.2 6.4 0.00 0.00 0.00 24 1016.6
20260502003646 20 44 3.2 9.7 0.00 0.00 0.00 24 1016.7
20260502002615 20 331 4.8 12.9 0.00 0.00 0.00 25 1016.7
20260502001623 20 309 4.8 11.3 0.00 0.00 0.00 25 1016.8
20260502000634 20 66 6.4 12.9 0.00 0.00 0.00 25 1016.8
20260501235614 20 309 6.4 14.5 0.00 0.00 0.00 26 1016.9
20260501234624 20 333 6.4 14.5 0.00 0.00 0.00 26 1017.0
20260501233614 19 257 8.0 14.5 0.00 0.00 0.00 26 1017.1
20260501232622 19 309 4.8 14.5 0.00 0.00 0.00 28 1017.0
20260501231638 20 324 1.6 14.5 0.00 0.00 0.00 26 1017.0
20260501230627 20 311 9.7 17.7 0.00 0.00 0.00 26 1017.2
20260501225625 19 41 4.8 8.0 0.00 0.00 0.00 26 1017.2
20260501224615 19 275 3.2 16.1 0.00 0.00 0.00 27 1017.3
20260501223628 19 267 9.7 14.5 0.00 0.00 0.00 28 1017.4
20260501222617 19 236 1.6 12.9 0.00 0.00 0.00 25 1017.6
20260501221628 19 339 4.8 16.1 0.00 0.00 0.00 26 1017.7
20260501220615 19 32 3.2 9.7 0.00 0.00 0.00 28 1017.8
20260501215617 18 12 3.2 14.5 0.00 0.00 0.00 27 1018.0
20260501214626 18 40 4.8 12.9 0.00 0.00 0.00 26 1018.0
20260501213652 18 260 6.4 25.7 0.00 0.00 0.00 29 1018.2
20260501212620 18 302 4.8 14.5 0.00 0.00 0.00 28 1018.3
20260501211614 18 39 8.0 14.5 0.00 0.00 0.00 29 1018.4
20260501210624 18 342 8.0 14.5 0.00 0.00 0.00 28 1018.5
20260501205626 17 322 6.4 16.1 0.00 0.00 0.00 30 1018.5
20260501204614 18 304 4.8 16.1 0.00 0.00 0.00 30 1018.6
20260501203627 18 288 3.2 14.5 0.00 0.00 0.00 28 1018.6
20260501202653 17 44 9.7 17.7 0.00 0.00 0.00 30 1018.7
20260501201620 17 9 6.4 19.3 0.00 0.00 0.00 32 1018.7
20260501200625 17 284 3.2 16.1 0.00 0.00 0.00 32 1018.7
20260501195645 17 86 1.6 14.5 0.00 0.00 0.00 29 1018.8
20260501194616 17 44 8.0 17.7 0.00 0.00 0.00 31 1018.9
20260501193625 16 271 3.2 14.5 0.00 0.00 0.00 33 1019.0
20260501192616 16 235 3.2 12.9 0.00 0.00 0.00 33 1019.0
20260501191630 16 277 6.4 11.3 0.00 0.00 0.00 34 1019.1
20260501190619 16 355 3.2 16.1 0.00 0.00 0.00 33 1019.2
20260501185618 16 240 4.8 16.1 0.00 0.00 0.00 33 1019.3
20260501184625 15 239 3.2 9.7 0.00 0.00 0.00 35 1019.4
20260501183617 16 360 4.8 11.3 0.00 0.00 0.00 36 1019.6
20260501182626 15 271 4.8 9.7 0.00 0.00 0.00 38 1019.6
20260501181614 15 344 3.2 8.0 0.00 0.00 0.00 34 1019.7
20260501180634 15 10 3.2 12.9 0.00 0.00 0.00 35 1019.7
20260501175632 15 35 4.8 9.7 0.00 0.00 0.00 34 1019.8
20260501174625 14 32 3.2 12.9 0.00 0.00 0.00 37 1019.9
20260501173633 14 34 6.4 9.7 0.00 0.00 0.00 37 1020.0
20260501172622 14 324 3.2 8.0 0.00 0.00 0.00 37 1020.1
20260501171627 14 25 1.6 8.0 0.00 0.00 0.00 39 1020.2
20260501170620 13 317 3.2 8.0 0.00 0.00 0.00 44 1020.2
20260501165618 13 32 3.2 9.7 0.00 0.00 0.00 42 1020.4
20260501164628 13 280 3.2 9.7 0.00 0.00 0.00 46 1020.4
20260501163637 12 265 3.2 9.7 0.00 0.00 0.00 47 1020.4